Lid_Strength_Index
7 8 9 9 8 9 9 10 10 8 8 9 8 8 6 6 5 6 6 6 4 4 3 2 2 2 2 1 1 1 1 0 0 1 1 1 1 0 0 -0 -1 -1 -1 -1
8 9 8 8 8 9 9 10 9 8 7 8 7 8 6 6 6 7 7 6 6 5 4 4 3 2 2 2 1 1 1 0 0 0 0 0 0 0 -0 -1 -1 -1 -1 -1
9 8 8 7 8 8 9 9 9 9 7 7 8 8 7 6 6 6 6 6 6 5 5 4 4 3 2 2 2 1 1 0 0 -0 0 0 0 -0 1 0 0 -0 -1 -1
8 8 8 8 9 8 10 8 8 9 9 11 8 12 8 8 8 7 6 6 6 5 4 4 4 4 3 2 1 1 1 0 0 -0 0 1 2 2 1 1 0 -0 -1 -1
9 8 8 8 9 8 10 8 9 9 9 10 10 11 9 8 8 8 7 6 6 5 5 6 5 6 5 5 4 2 1 1 0 0 0 1 1 1 1 1 0 0 -0 -1
8 7 7 8 7 8 8 9 9 9 10 13 11 11 10 11 11 9 7 6 6 6 5 5 6 5 6 6 5 5 6 5 4 3 1 1 1 1 1 1 1 1 0 0
9 9 7 7 9 8 8 10 13 14 13 13 11 11 11 10 9 8 8 7 7 7 6 7 6 6 6 6 5 5 5 5 4 4 3 3 3 3 3 1 1 1 1 1
11 12 9 8 9 10 9 10 14 17 15 14 10 14 10 8 7 6 6 6 6 8 7 7 7 6 6 6 5 5 4 4 4 4 4 3 3 3 3 2 2 2 2 1
11 12 8 8 7 7 10 11 9 13 13 15 12 11 9 8 8 7 7 6 7 7 7 6 7 7 6 5 5 5 5 5 5 4 4 4 3 3 3 2 2 2 1 1
10 12 10 9 7 7 8 8 12 12 18 18 13 14 12 11 10 8 8 7 6 6 6 6 6 6 6 5 4 4 4 5 4 4 4 4 4 3 3 3 3 3 2 0
9 11 12 10 10 10 10 11 12 12 14 17 19 14 9 9 8 8 8 6 6 5 5 5 5 5 5 4 5 4 4 4 5 5 5 4 4 3 3 3 2 2 1 1
10 11 13 12 9 8 9 10 11 13 15 14 15 14 7 7 7 7 7 6 5 5 4 4 4 4 4 4 5 5 5 5 5 5 5 6 5 4 4 3 3 2 2 0
9 11 14 13 10 9 10 10 10 11 11 15 17 13 8 7 7 7 7 6 5 5 5 4 3 4 4 4 5 5 5 6 5 5 5 5 5 5 4 4 3 2 2 1
8 10 11 13 12 10 11 10 10 10 14 13 13 11 9 7 7 6 6 5 5 5 5 4 4 4 3 4 5 6 6 6 6 5 6 5 5 5 5 4 4 3 4 3
9 12 11 10 10 10 10 10 10 12 10 13 11 10 8 7 6 6 5 5 5 5 5 5 4 4 3 5 5 5 5 5 5 5 5 4 4 4 4 4 4 3 3 2
9 11 11 11 10 10 11 10 10 10 10 10 10 10 6 6 5 6 5 5 6 5 5 4 4 4 3 4 4 4 3 3 3 4 5 4 4 3 3 3 2 2 2 2
10 10 12 14 12 12 13 11 10 10 9 9 11 8 6 7 7 7 6 5 6 5 5 4 4 3 3 3 3 3 3 2 3 3 3 3 3 3 2 2 2 2 2 1
11 10 11 14 13 17 11 9 9 9 8 8 8 7 7 7 6 6 5 5 5 5 5 4 4 4 2 2 2 2 2 2 3 3 3 3 2 2 2 2 2 1 1 1
9 10 13 15 14 12 11 9 9 10 9 7 8 7 7 6 6 6 4 4 4 3 3 3 2 2 2 2 2 2 3 3 3 3 3 3 2 2 2 2 2 1 1 1
10 9 11 13 16 18 11 7 6 7 12 6 7 7 7 6 9 7 4 3 3 3 2 3 2 3 2 2 2 2 2 2 2 2 2 2 2 1 1 1 1 1 1 1
12 12 13 13 15 12 8 8 6 13 11 6 6 6 6 7 6 4 3 3 3 2 2 2 2 2 1 2 2 2 2 2 1 1 1 1 1 1 1 0 0 0 0 0
12 13 13 12 15 17 7 7 10 7 6 6 5 5 5 5 4 4 3 3 3 3 3 3 3 2 1 1 2 2 2 1 1 1 1 1 1 1 1 0 0 0 1 1
13 10 11 11 11 8 6 6 5 5 6 5 5 4 4 5 5 4 4 4 4 4 3 3 4 3 3 2 3 3 2 1 1 1 1 1 0 0 1 1 1 1 1 1
9 8 10 10 8 7 6 5 4 4 4 4 4 4 4 5 4 5 4 4 5 4 4 4 4 4 4 3 3 2 2 1 1 1 1 1 1 2 1 1 2 2 2 2
9 9 10 10 8 7 6 6 5 4 3 4 3 3 4 4 4 4 4 5 4 5 5 5 5 5 5 4 3 2 2 2 2 2 2 2 2 3 3 3 2 2 2 3
9 10 11 11 8 8 7 6 5 4 4 4 4 4 4 4 5 5 5 5 5 5 5 5 5 5 4 4 4 4 3 2 2 3 3 3 4 4 4 3 3 5 6 7